Regional Weather Roundup
Issued by NWS

Home | Current Version | Previous Version | Text Only | Print | Product List | Glossary Off
Versions: 1 2 3 4 5 6 7 8 9 10 11 12 13 14 15 16 17 18 19 20 21 22 23 24 25 26 27 28 29 30 31 32 33 34 35 36 37 38 39 40 41 42 43 44 45 46 47 48 49 50

000
ASUS45 KPSR 310810
RWRAZ

ARIZONA HOURLY REGIONAL WEATHER ROUNDUP
NATIONAL WEATHER SERVICE PHOENIX AZ
100 AM MST MON AUG 31 2015

NOTE: FAIR INDICATES FEW OR NO CLOUDS BELOW 12,000 FEET WITH NO
SIGNIFICANT WEATHER AND/OR OBSTRUCTIONS TO VISIBILITY.

AZZ001>003-036-310900-
NORTHWEST ARIZONA

CITY           SKY/WX    TMP DP  RH WIND       PRES   REMARKS
BULLHEAD CITY  CLEAR     93  37  14 SE8       29.72S
KINGMAN        CLEAR     78  39  24 S12       29.95S
$$

AZZ004>008-015-016-018-310900-
NORTH CENTRAL ARIZONA

CITY           SKY/WX    TMP DP  RH WIND       PRES   REMARKS
GRAND CANYON     N/A    N/A N/A N/A MISG      30.23F
WILLIAMS       MOCLDY    57  54  88 S8        30.28F
PRESCOTT       CLEAR     70  55  59 SE5       30.11R
FLAGSTAFF      MOCLDY    55  54  96 CALM      30.29R
PAYSON         PTCLDY    70  54  56 N5        30.15S
PAGE           CLEAR     70  58  65 SE5       30.08S
$$

AZZ009>014-017-310900-
NORTHEAST ARIZONA

CITY           SKY/WX    TMP DP  RH WIND       PRES   REMARKS
WINSLOW        MOCLDY    63  61  93 S3        30.16S
SAINT JOHNS    MOCLDY    65  54  67 NW8       30.20R
WINDOW ROCK    MOCLDY    59  50  72 VRB7      30.28R
SHOW LOW       PTCLDY    59  54  82 CALM      30.27R
$$

AZZ023-310900-
GREATER PHOENIX AREA

CITY           SKY/WX    TMP DP  RH WIND       PRES   REMARKS
PHOENIX        PTCLDY    89  65  44 SE8       29.80S
BUCKEYE        CLEAR     88  63  42 E5        29.79S
LUKE AFB       CLEAR     91  63  39 E6        29.79R
DEER VALLEY    MOCLDY    91  60  35 CALM      29.82R
SCOTTSDALE     PTCLDY    89  63  41 SE5       29.84R
MESA-GATEWAY   MOCLDY    82  64  54 SE8       29.85S
$$

AZZ027-028-310900-
SOUTHWEST MARICOPA COUNTY AND PINAL COUNTY

CITY           SKY/WX    TMP DP  RH WIND       PRES   REMARKS
CASA GRANDE    PTCLDY    84  63  48 CALM      29.83S
GILA BEND      FAIR      91  60  35 NW6       29.78R
$$

AZZ503-504-507>509-310900-
SOUTHEAST ARIZONA

CITY           SKY/WX    TMP DP  RH WIND       PRES   REMARKS
TUCSON         PTCLDY    79  61  53 SE8       29.97R
DAVIS-MONTHAN  CLEAR     77  63  61 SE6       29.95S
NOGALES        PTCLDY    65  62  90 CALM      30.06R
SIERRA VISTA   PTCLDY    70  56  61 S9        30.11S
DOUGLAS        MOCLDY    67  63  87 SE5       30.08R
SAFFORD        MOCLDY    81  57  43 SE8       29.96S
$$

AZZ020-021-025-026-031-310900-
SOUTHWEST ARIZONA

CITY           SKY/WX    TMP DP  RH WIND       PRES   REMARKS
YUMA           CLEAR     89  51  27 SW3       29.72F
$$

CAZ031-033-041-043-047-048-061-310900-
SOUTHERN CALIFORNIA

CITY           SKY/WX    TMP DP  RH WIND       PRES   REMARKS
DOWNTOWN L.A.  CLEAR     71  63  75 CALM      29.85S
L.A. AIRPORT   PTCLDY    71  65  81 VRB5      29.85S
SAN DIEGO      PTCLDY    70  63  78 CALM      29.88S
BURBANK        CLEAR     73  60  63 E5        29.86S
ONTARIO        PTCLDY    73  61  65 SW3       29.86F
RIVERSIDE      CLEAR     73  59  61 CALM      29.87S
PALM SPRINGS   CLEAR     89  54  30 W6        29.74R
EL CENTRO NAS  PTCLDY    89  41  18 W10       29.71S
IMPERIAL       PTCLDY    86  45  23 SW5       29.69S
BLYTHE         PTCLDY    89  48  24 S10       29.71R
NEEDLES        CLEAR     93  40  15 S8        29.73R
$$

NVZ020-UTZ003-310900-
SOUTHERN NEVADA-UTAH

CITY           SKY/WX    TMP DP  RH WIND       PRES   REMARKS
LAS VEGAS      PTCLDY    87  41  19 SW5       29.78R
SALT LAKE CITY MOCLDY    69  43  38 N8        30.00R
$$

NMZ009-TXZ055-310900-
NEW MEXICO-WEST TEXAS

CITY           SKY/WX    TMP DP  RH WIND       PRES   REMARKS
ALBUQUERQUE    PTCLDY    75  48  38 NW7       30.14S
EL PASO        CLEAR     75  48  38 S3        30.04S
$$


........................KEY........................
SKY/WX - SKY CONDITION/WEATHER
TMP    - TEMPERATURE IN FAHRENHEIT
DP     - DEW POINT IN FAHRENHEIT
RH     - RELATIVE HUMIDITY IN PERCENT
WIND   - DIRECTION AND SPEED IN MILES PER HOUR (MPH)
VRB    - VARIABLE WIND DIRECTION
PRES   - MEAN SEA LEVEL PRESSURE IN INCHES OF MERCURY
         F - FALLING PRESSURE   R - RISING PRESSURE
         S - STEADY PRESSURE
VSB    - VISIBILITY IN MILES
HX     - HEAT INDEX IN FAHRENHEIT
WCI    - WIND CHILL INDEX IN FAHRENHEIT
TC     - TEMPERATURE IN CELSIUS WHICH IS ALSO KNOWN AS
         TEMPERATURE IN CENTIGRADE
AFB    - AIR FORCE BASE
         LUKE AFB IS LUKE AIR FORCE BASE
         DAVIS-MONTHAN IS DAVIS-MONTHAN AIR FORCE BASE
NAS    - NAVAL AIR STATION
         EL CENTRO NAS IS EL CENTRO NAVAL AIR STATION
N/A    - NOT AVAILABLE



USA.gov is the U.S. government's official web portal to all federal, state and local government web resources and services.